星链-30090 (STARLINK-30090 )

导读

STARLINK-30090是美国太空探索技术公司SpaceX星链互联网卫星星座的一员,于2023年4月19日发射入轨。星链项目旨在为全球提供高速低延迟互联网覆盖,该卫星和同批次卫星一同加入已经部署数万颗卫星的星座网络,承担全球偏远地区网络接入、应急通信等服务任务,是星链星座大规模组网进程中的组成单元。

Basic Information
目录编号:
56293
目录名称:
STARLINK-30090
国际标识:
2023-056H
轨道中心:
EARTH
卫星名称:
星链-30090
卫星全名:
星链-30090 (STARLINK-30090 )
卫星状态:
已陨落 最后检测时间 2026-04-08
发射日期:
2023-04-19 UTC
国别 :
美国 (US)
星等 :
--
Orbit Information
数据来源 国际轨道数据
星历时间: 2026-04-07T21:01:25+0800
轨道信息已过期72天
半长轴: 6619.979km
偏心率: 0.0002902
轨道倾角: 42.997°
近地点辐角 241.371°
升交点赤经 36.172°
平近点角 118.688°
近地点: 239.92km
远地点: 243.764km
周期: 89.340分钟
每日圈数: 16.118249
Detailed Information
固有亮度:
5
最大亮度:
0.3
卫星平台:
Starlink v2.0 mini
覆盖范围:
全球
运营商:
太空探索技术公司
运营商所在国:
美国
制造商(研发单位):
太空探索技术公司
制造商所在国:
美国
使用方式:
暂无
Satellite Introduction
星链(Starlink)计划是由太空探索技术公司(SpaceX)提出的一个巨型低轨卫星互联网星座项目,计划在2019年至2024年间在太空搭建由约1.2万颗卫星组成的“星链”网络,其中1584颗将部署在地球上空550千米处的近地轨道,并从2020年开始工作。该卫星仍在工作。